Wetterdaten am Flugplatz MSG Übersee

alte Datensätze gelöscht
23 aktuelle Wetterdateneinträge gefunden

Datum/Uhrzeit   Windrichtung/Grad    Geschw./kmh    Temp./C°    Luftdruck/mbar    Spannung/Volt   
2026-05-05 00:04 W/280 11 18 1015 12,61
2026-05-05 00:14 W/274 12 18 1015 12,29
2026-05-05 00:24 W/279 14 18 1015 12,45
2026-05-05 00:34 W/288 10 18 1015 12,49
2026-05-05 00:44 NW/296 6 18 1015 12,51
2026-05-05 00:54 O/96 5 18 1015 12,54
2026-05-05 01:04 W/268 3 18 1015 12,57
2026-05-05 01:14 W/264 2 18 1015 12,20
2026-05-05 01:24 W/263 4 17 1015 12,42
2026-05-05 01:34 W/263 3 17 1014 12,46
2026-05-05 01:44 W/263 6 17 1014 12,48
2026-05-05 01:54 W/263 4 17 1014 12,51
2026-05-05 02:05 W/279 4 17 1014 12,52
2026-05-05 02:15 W/266 4 16 1014 12,21
2026-05-05 02:25 W/264 2 16 1014 12,40
2026-05-05 02:35 W/263 4 16 1014 12,43
2026-05-05 02:45 W/263 5 16 1014 12,45
2026-05-05 02:55 W/263 2 16 1014 12,48
2026-05-05 03:05 W/263 3 15 1014 12,35
2026-05-05 03:15 SW/244 6 15 1014 12,39
2026-05-05 03:25 S/200 10 15 1014 12,52
2026-05-05 03:35 S/196 11 15 1014 12,45
2026-05-05 03:45 S/186 8 15 1013 12,33